Regional Weather Roundup
Issued by NWS

Home | Current Version | Previous Version | Text Only | Print | Product List | Glossary On
Versions: 1 2 3 4 5 6 7 8 9 10 11 12 13 14 15 16 17 18 19 20 21 22 23 24 25 26 27 28 29 30 31 32 33 34 35 36 37 38 39 40 41 42 43 44 45 46 47 48 49 50
000
ASUS43 KOAX 251603
RWRNE

WEATHER ROUNDUP FOR NEBRASKA
NATIONAL WEATHER SERVICE OMAHA NE
1100 AM CDT FRI MAY 25 2018

NOTES: SATELLITE DATA IS BEING USED TO AUGMENT CLOUD COVER ABOVE
       12000 FEET.
       "FAIR" INDICATES FEW OR NO CLOUDS BELOW 12,000 FEET WITH NO
       SIGNIFICANT WEATHER AND/OR OBSTRUCTIONS TO VISIBILITY.


NEZ001>004-019>022-054>056-251700-
NEBRASKA PANHANDLE

CITY           SKY/WX    TMP DP  RH WIND       PRES   REMARKS
SCOTTSBLUFF    SUNNY     73  55  53 W9        30.01F
ALLIANCE       SUNNY     79  53  40 W10       29.98S
CHADRON        SUNNY     76  55  48 W10       29.96S
GORDON         FAIR      79  52  38 W10       29.94F
KIMBALL        SUNNY     76  51  40 W8        30.07F
SIDNEY         SUNNY     81  51  35 NW12      30.03F
$$

NEZ057>060-069>072-079>082-251700-
SOUTHWEST NEBRASKA

CITY           SKY/WX    TMP DP  RH WIND       PRES   REMARKS
NORTH PLATTE   SUNNY     80  60  50 W7        29.93F
IMPERIAL       SUNNY     84  49  29 W9        29.97F
LEXINGTON      SUNNY     81  59  47 W6        29.92S
MCCOOK         SUNNY     80  57  45 W7        29.94F
OGALLALA       SUNNY     80  57  44 W7        29.97S
$$

NEZ005>010-023>029-035>040-094-251700-
NORTH CENTRAL NEBRASKA

CITY           SKY/WX    TMP DP  RH WIND       PRES   REMARKS
VALENTINE      SUNNY     82  58  43 NW6       29.88F
AINSWORTH      SUNNY     80  60  51 W7        29.89F
BROKEN BOW     SUNNY     83  59  44 VRB3      29.90F
O`NEILL        SUNNY     84  63  48 CALM      29.88S
ORD            SUNNY     82  58  43 VRB5      29.87F
THEDFORD       SUNNY     81  60  47 NW9       29.92S
$$

NEZ041-046>049-061>064-073>077-083>087-251700-
SOUTH CENTRAL NEBRASKA

CITY           SKY/WX    TMP DP  RH WIND       PRES   REMARKS
GRAND ISLAND   SUNNY     82  56  40 W7        29.91S
AURORA         PTSUNNY   78  54  43 SW9       29.90F
HASTINGS       SUNNY     80  56  43 SW10      29.92F
HEBRON         SUNNY     83  58  42 W8        29.91S
HOLDREGE       SUNNY     79  56  45 SW8G16    29.93S
KEARNEY        SUNNY     80  54  40 SW10      29.92S
YORK           SUNNY     81  57  44 W10       29.90S
$$

NEZ011>018-030>034-042>045-251700-
NORTHEAST NEBRASKA

CITY           SKY/WX    TMP DP  RH WIND       PRES   REMARKS
NORFOLK        SUNNY     85  63  47 NW5       29.83S
ALBION         SUNNY     82  61  48 W8        29.87F
BLAIR          SUNNY     81  63  53 SW6       29.86F
COLUMBUS       SUNNY     83  60  45 W9        29.87F
FREMONT        SUNNY     85  63  46 W6        29.85F
TEKAMAH        SUNNY     80  65  59 W3        29.84F
WAYNE          SUNNY     83  68  59 CALM      29.84F
$$

NEZ050>053-065>068-078-088>093-251700-
SOUTHEAST NEBRASKA

CITY           SKY/WX    TMP DP  RH WIND       PRES   REMARKS
LINCOLN        SUNNY     85  57  38 W9        29.88F
OMAHA EPPLEY   MOSUNNY   81  62  52 SW7       29.85F
BEATRICE       MOSUNNY   80  62  53 S10       29.91S
FALLS CITY     CLOUDY    78  64  61 SW15      29.90F
NEBRASKA CITY  PTSUNNY   80  66  61 S10       29.89S
PLATTSMOUTH    MOSUNNY   79  65  62 S6        29.87F
$$

NEZ044-045-051>053-067-251700-
OMAHA AREA

CITY           SKY/WX    TMP DP  RH WIND       PRES   REMARKS
OMAHA EPPLEY   MOSUNNY   81  62  52 SW7       29.85F
BLAIR          SUNNY     81  63  53 SW6       29.86F
FREMONT        SUNNY     85  63  46 W6        29.85F
MILLARD        SUNNY     82  65  56 W5        29.86S
OFFUTT AFB     SUNNY     81  64  56 W5        29.85F
PLATTSMOUTH    MOSUNNY   79  65  62 S6        29.87F
WAHOO          FAIR      89  47  23 W12       29.85F
$$




USA.gov is the U.S. government's official web portal to all federal, state and local government web resources and services.